Location: Moscow
(55.7500°N, 37.5830°E)
Time: 10:29:10
(UTC+03:00)

Transit 4A - Pass Details

Date: 03 December 2021
Orbit: 863 x 981 km, 66.8° (Epoch: 23 January)

Event Time Altitude Azimuth Distance (km) Brightness Sun altitude
Rises 19:30:12 0° 186° (S) 3,459 10.9 -28.0°
Reaches altitude 10° 19:32:51 10° 177° (S) 2,538 10.1 -28.4°
Enters shadow 19:32:58 11° 176° (S) 2,501 10.1 -28.4°
